COSMOS 2357

Satellite information

Favourite Embed

Satellite Type and Status

PAYLOADIN ORBIT

Key statistics

Satellite COSMOS 2357 at a glance.

Uptime

10048

Days in orbit

Revolutions

≈ 12.2

Per day

Orbit

LEO

Low Earth Orbit

Inclination

82.6

Latest

Satellite identification and parameters

Extended collection of information and parameters for COSMOS 2357.

Object identification

Identified? True

Debris? False

Object name: COSMOS 2357

International designator: 1998-036F

Object number (NORAD): 25368

Object ID (CCSDS): 25368

Country: COMMONWEALTH OF INDEPENDENT STATES (CIS)

Current information (Y/N): Y

RCS size: MEDIUM

Orbital parameters

Period: 117.706 minutes

Inclination: 82.5871 deg

SMA: 7955.982 km

Apoapsis: 1861.865 km

Periapsis: 1293.83 km

RAAN: 69.3531 deg

Eccentricy: 0.03569862

Argument of periapsis: 154.436 deg

Mean anomaly: 207.4851 deg

Mean motion: 12.23381924 rev/day

Mean motion (dot): -0.00000011 rev/day2

B* drag term: -0.00016823014 1/REarth

Two-line elements (TLE)

Creation date: Dec. 17, 2025, 2:25 a.m.

Reference frame: TEME

Reference center: EARTH

Epoch: Dec. 16, 2025, 4:29 p.m. UTC

TLE line 0: 0 COSMOS 2357

TLE line 1: 1 25368U 98036F 25350.68692281 -.00000011 00000-0 -16823-3 0 9994

TLE line 2: 2 25368 82.5871 69.3531 0356986 154.4360 207.4851 12.23381924228323

Live tracking on map

Real-time ground track for satellite COSMOS 2357.

In-orbit conjunctions

A list of the most updated potential collisions computed for object COSMOS 2357.

Target Orbit TCA Probability of collision Miss distance Type
OPS 4682 DEB SSO 2025-10-16 15:47:33 0.0006091351 639.0 (m) DEBRIS
OPS 4682 DEB SSO 2025-04-29 19:17:04 0.001398058 222.0 (m) DEBRIS

Associated space launch

Second generation store-dump military communications satellites

COSMOS 2357 was lifted into orbit during the mission ‘Tsiklon-3 | Strela-3 119 to 124’, on board a Tsiklon-3 space rocket.

The launch took place on June 15, 1998, 10:58 p.m. from 32/1.

For more information about the launch, click the button.

Launch to space Tsiklon-3 | Strela-3 119 to 124
Tsiklon-3 | Strela-3 119 to 124

Agency: N/A

Status: Launch Successful

Launch date: June 15, 1998, 10:58 p.m. UTC

Rocket: Tsiklon-3

Launch pad: 32/1

Location: Plesetsk Cosmodrome, Russian Federation

...

Latest news about this satellite

There are no fresh news available about this satellite. Check back as we update our databases every day.


Newsletter sign-up

Weekly statistics, charts and insights to help you stay on top of the space industry.